Flag for Switzerland Weather past 2 weeks in Lugano, Switzerland

Now
73 °F

Overcast.


Feels Like: 74 °F
Forecast: 65 / 90 °F
Wind: 2 mph from Northeast

Location: Lugano Airport

Current Time: Jul 2, 2015 at 3:58:26 AM

Latest Report: Jul 2, 2015 at 3:20 AM


Visibility: N/A

Pressure: 30.18 "Hg

Humidity: 78%

Dew point: 66 °F

Location of LuganoLocation

Historic Weather in Lugano — Graph

°F

Lugano temperature yesterday

Maximum temperature yesterday: 88 °F (at 2:50 PM)
Minimum temperature yesterday: 70 °F (at 6:20 AM)
Average temperature yesterday: 79 °F

Past Weeks' High & Low Weather Summary

 TemperatureHumidityPressure
High88 °F (Jun 28, 4:50 PM)100% (Jun 17, 2:20 AM)30.21 "Hg (Jun 17, 2:20 AM)
Low55 °F (Jun 17, 5:20 AM)24% (Jun 19, 5:50 PM)29.74 "Hg (Jun 23, 12:20 PM)
Average71 °F63%30.03 "Hg
* Reported Jun 17 2:20 AM — Jul 2 2:20 AM, Lugano, Weather by CustomWeather, © 2015

Note: Actual official high and low records may vary slightly from our data, if they occured in-between our weather recording intervals... More about our weather records

Advertising

Lugano weather history for previous 24 hours

 ConditionsComfort  
Time TempWeatherWind HumidityBarometerVisibility
2:20 AM
Thu, Jul 2
73 °FOvercast.1 mph78%30.18 "HgN/A
1:50 AM73 °FOvercast.2 mph78%30.18 "HgN/A
1:20 AM72 °FOvercast.2 mph83%30.18 "HgN/A
12:50 AM73 °FPassing clouds.No wind78%30.18 "HgN/A
11:50 PM
Wed, Jul 1
73 °FClear.No wind78%30.18 "Hg10 mi
11:20 PM75 °FClear.1 mph74%30.18 "Hg10 mi
10:50 PM75 °FClear.2 mph78%30.18 "Hg10 mi
10:20 PM77 °FWarm.2 mph74%30.18 "HgN/A
9:50 PM79 °FPassing clouds.1 mph70%30.15 "HgN/A
9:20 PM79 °FPassing clouds.3 mph70%30.15 "HgN/A
8:50 PM81 °FWarm.3 mph66%30.15 "HgN/A
8:20 PM82 °FScattered clouds.2 mph62%30.12 "HgN/A
7:50 PM84 °FScattered clouds.5 mph55%30.12 "HgN/A
7:20 PM86 °FScattered clouds.5 mph52%30.12 "HgN/A
6:50 PM86 °FScattered clouds.5 mph49%30.12 "HgN/A
6:20 PM86 °FScattered clouds.8 mph52%30.12 "HgN/A
5:50 PM88 °FScattered clouds.8 mph49%30.12 "HgN/A
5:20 PM88 °FScattered clouds.8 mph49%30.12 "HgN/A
4:50 PM88 °FScattered clouds.8 mph46%30.12 "HgN/A
4:20 PM88 °FScattered clouds.8 mph49%30.12 "HgN/A
3:50 PM88 °FPassing clouds.9 mph46%30.12 "HgN/A
3:20 PM88 °FScattered clouds.8 mph46%30.12 "HgN/A
2:50 PM88 °FScattered clouds.8 mph46%30.12 "HgN/A
2:20 PM86 °FScattered clouds.8 mph49%30.12 "HgN/A
1:50 PM86 °FPassing clouds.6 mph49%30.12 "HgN/A
1:20 PM84 °FPassing clouds.5 mph51%30.15 "HgN/A
12:50 PM84 °FPassing clouds.6 mph51%30.15 "HgN/A
12:20 PM82 °FPassing clouds.6 mph55%30.15 "HgN/A
11:50 AM82 °FPassing clouds.7 mph55%30.15 "HgN/A
11:20 AM81 °FPassing clouds.6 mph58%30.15 "HgN/A
10:50 AM81 °FPassing clouds.6 mph54%30.15 "HgN/A
10:20 AM79 °FPassing clouds.6 mph61%30.15 "HgN/A
9:50 AM77 °FPassing clouds.3 mph69%30.15 "HgN/A
9:20 AM79 °FPassing clouds.1 mph61%30.15 "HgN/A
8:50 AM75 °FPassing clouds.1 mph69%30.15 "HgN/A
8:20 AM75 °FPassing clouds.1 mph74%30.18 "HgN/A
7:50 AM73 °FPassing clouds.2 mph78%30.18 "HgN/A
7:20 AM72 °FPassing clouds.2 mph78%30.18 "HgN/A
6:50 AM70 °FScattered clouds.3 mph88%30.18 "HgN/A
6:20 AM70 °FPartly cloudy.3 mph88%30.18 "HgN/A
5:50 AM72 °FPassing clouds.2 mph78%30.18 "HgN/A
5:20 AM72 °FFog.1 mph78%30.15 "Hg1 mi
4:50 AM72 °FMostly cloudy.1 mph78%30.15 "HgN/A
4:20 AM72 °FOvercast.1 mph78%30.15 "HgN/A
3:50 AM72 °FOvercast.2 mph78%30.15 "HgN/A
3:20 AM72 °FOvercast.1 mph78%30.15 "HgN/A
Weather by CustomWeather, © 2015

See weather overviewHow to use our weather pages